GW6910 Weather Reports


time (UTC)temp
F
wind
direction
speed
knots
gust
knots
rain 1hr
in
rain 24hr
in
rain mn
in
humidity
%
barometer
mb
20260502232008 50 177 0.0 0.0 0.00 0.02 0.00 86 1015.4
20260502231532 50 177 0.0 0.0 0.00 0.02 0.00 84 1015.4
20260502231008 51 177 0.0 0.0 0.00 0.02 0.00 84 1015.4
20260502230507 51 177 0.0 0.0 0.00 0.02 0.00 84 1015.4
20260502230025 50 177 0.0 0.0 0.00 0.02 0.00 85 1015.4
20260502225503 50 177 0.0 0.0 0.00 0.02 0.00 85 1015.5
20260502225004 51 177 0.0 1.7 0.00 0.02 0.00 84 1015.5
20260502224507 51 177 0.0 1.7 0.00 0.02 0.00 84 1015.5
20260502224008 51 177 0.0 1.7 0.00 0.02 0.00 84 1015.5
20260502223505 51 177 0.0 1.7 0.00 0.02 0.00 83 1015.6
20260502223032 51 217 0.0 1.7 0.00 0.02 0.00 84 1015.6
20260502222508 51 217 0.0 1.7 0.00 0.02 0.00 83 1015.5
20260502222007 51 217 0.0 0.9 0.00 0.02 0.00 83 1015.5
20260502221516 51 217 0.0 0.9 0.00 0.02 0.00 83 1015.6
20260502221013 51 217 0.0 0.9 0.00 0.02 0.00 82 1015.6
20260502220510 53 217 0.0 1.7 0.00 0.02 0.00 80 1015.7
20260502220024 52 217 0.0 1.7 0.00 0.02 0.00 81 1015.6
20260502215510 52 216 0.0 0.9 0.00 0.02 0.02 82 1015.6
20260502215008 52 216 0.0 0.0 0.00 0.02 0.02 82 1015.6
20260502214523 52 216 0.0 0.9 0.00 0.02 0.02 82 1015.6
20260502214007 52 216 0.0 0.9 0.00 0.02 0.02 81 1015.6
20260502213504 52 223 0.0 0.0 0.00 0.02 0.02 80 1015.6
20260502213013 53 223 0.0 1.7 0.00 0.02 0.02 80 1015.6
20260502212505 52 223 0.0 1.7 0.00 0.02 0.02 80 1015.6
20260502212006 52 223 0.0 1.7 0.00 0.02 0.02 79 1015.7
20260502211516 53 223 0.0 1.7 0.00 0.02 0.02 78 1015.7
20260502211007 54 223 0.0 1.7 0.00 0.02 0.02 78 1015.7
20260502210511 54 223 0.0 1.7 0.00 0.02 0.02 77 1015.7
20260502210020 55 223 0.0 1.7 0.00 0.02 0.02 76 1015.7
20260502205513 55 223 0.0 1.7 0.00 0.02 0.02 77 1015.6
20260502205010 55 223 0.0 1.7 0.00 0.02 0.02 77 1015.6
20260502204535 55 223 0.0 1.7 0.00 0.02 0.02 76 1015.6
20260502204008 55 223 0.0 1.7 0.00 0.02 0.02 76 1015.6
20260502203511 54 223 0.0 0.0 0.00 0.02 0.02 77 1015.6
20260502203008 55 223 0.0 1.7 0.00 0.02 0.02 75 1015.6
20260502202503 56 223 0.0 1.7 0.00 0.02 0.02 74 1015.6
20260502202007 56 223 0.0 1.7 0.00 0.02 0.02 75 1015.6
20260502201511 56 196 0.0 1.7 0.00 0.02 0.02 75 1015.6
20260502201007 56 196 0.0 1.7 0.00 0.02 0.02 73 1015.6
20260502200507 56 196 0.0 1.7 0.00 0.02 0.02 74 1015.6
20260502200018 56 198 0.0 1.7 0.00 0.02 0.02 73 1015.6
20260502195508 57 194 0.0 1.7 0.00 0.02 0.02 72 1015.6
20260502195007 57 194 0.0 1.7 0.00 0.02 0.02 73 1015.6
20260502194527 57 194 0.0 1.7 0.00 0.02 0.02 73 1015.6
20260502194009 58 194 0.0 1.7 0.00 0.02 0.02 70 1015.5
20260502193509 58 211 0.0 1.7 0.00 0.02 0.02 70 1015.5
20260502193024 58 152 0.0 1.7 0.00 0.02 0.02 72 1015.6
20260502192515 59 152 0.0 1.7 0.00 0.02 0.02 69 1015.5
20260502192003 60 205 0.0 2.6 0.00 0.02 0.02 64 1015.4
20260502191508 60 272 0.9 2.6 0.00 0.02 0.02 66 1015.4
20260502191004 61 198 0.0 1.7 0.00 0.02 0.02 65 1015.4
20260502190507 61 189 0.9 1.7 0.00 0.02 0.02 65 1015.4
20260502190018 61 227 0.0 1.7 0.00 0.02 0.02 64 1015.3
20260502185504 61 263 0.0 1.7 0.00 0.02 0.02 62 1015.3
20260502185008 62 266 0.0 1.7 0.00 0.02 0.02 63 1015.3
20260502184523 64 266 0.0 1.7 0.00 0.02 0.02 58 1015.3
20260502184009 64 207 0.0 1.7 0.00 0.02 0.02 58 1015.3
20260502183510 64 258 0.9 1.7 0.00 0.02 0.02 58 1015.2
20260502183024 65 234 0.0 1.7 0.00 0.02 0.02 58 1015.2
20260502182507 65 214 0.0 1.7 0.00 0.02 0.02 58 1015.2
20260502182010 65 208 0.0 1.7 0.00 0.02 0.02 58 1015.2
20260502181525 65 231 0.0 1.7 0.00 0.02 0.02 60 1015.2
20260502181010 65 215 0.0 1.7 0.00 0.02 0.02 62 1015.2
20260502180503 65 210 0.0 1.7 0.00 0.02 0.02 61 1015.3
20260502170509 71 193 0.9 2.6 0.00 0.02 0.02 48 1015.4
20260502164007 73 221 0.0 1.7 0.00 0.02 0.02 44 1015.6
20260502163508 74 198 0.0 1.7 0.00 0.02 0.02 43 1015.5
20260502163035 74 196 0.9 2.6 0.00 0.02 0.02 42 1015.6
20260502162508 74 194 0.0 2.6 0.00 0.02 0.02 42 1015.6
20260502162016 74 174 0.9 2.6 0.00 0.02 0.02 41 1015.7
20260502161529 74 228 0.9 5.2 0.00 0.02 0.02 41 1015.7
20260502161009 74 195 1.7 5.2 0.00 0.02 0.02 41 1015.8
20260502160511 75 196 0.9 4.3 0.00 0.02 0.02 39 1015.8
20260502152008 74 306 0.9 3.5 0.00 0.02 0.02 1016.2
20260502151522 75 161 0.9 3.5 0.00 0.02 0.02 1016.3
20260502151009 75 221 0.9 4.3 0.00 0.02 0.02 1016.4
20260502150509 75 200 0.9 5.2 0.00 0.02 0.02 44 1016.5
20260502130508 76 186 2.6 6.1 0.00 0.02 0.02 48 1018.1
20260502123507 75 148 3.5 6.1 0.00 0.02 0.02 46 1018.5
20260502123014 76 184 1.7 4.3 0.00 0.02 0.02 47 1018.5
20260502122506 76 193 1.7 6.1 0.00 0.02 0.02 46 1018.6
20260502122011 75 203 2.6 7.0 0.00 0.02 0.02 47 1018.8
20260502121516 76 220 3.5 7.0 0.00 0.02 0.02 47 1018.8
20260502121007 76 199 0.9 8.7 0.00 0.02 0.02 48 1018.8
20260502120514 75 74 2.6 7.8 0.00 0.02 0.02 45 1018.9
20260502115508 75 92 2.6 8.7 0.00 0.02 0.02 46 1019.2
20260502115011 75 181 5.2 8.7 0.00 0.02 0.02 45 1019.2
20260502114525 75 183 2.6 7.0 0.00 0.02 0.02 45 1019.3
20260502114011 74 219 1.7 7.8 0.00 0.02 0.02 45 1019.4
20260502113510 74 193 2.6 7.8 0.00 0.02 0.02 47 1019.5
20260502113010 74 181 2.6 7.8 0.00 0.02 0.02 46 1019.5
20260502112507 74 227 4.3 7.8 0.00 0.02 0.02 46 1019.6
20260502112007 74 182 1.7 6.1 0.00 0.02 0.02 45 1019.7
20260502111516 73 329 1.7 6.1 0.00 0.02 0.02 47 1019.8
20260502111006 73 329 2.6 7.8 0.00 0.02 0.02 46 1019.8
20260502110508 73 237 3.5 7.8 0.00 0.02 0.02 46 1019.9
20260502110022 73 213 4.3 6.1 0.00 0.02 0.02 46 1020.0
20260502105509 72 165 2.6 7.0 0.00 0.02 0.02 46 1020.0
20260502105008 72 141 2.6 7.0 0.00 0.02 0.02 47 1020.0
20260502104524 72 206 3.5 7.0 0.00 0.02 0.02 46 1020.1
20260502104010 72 206 2.6 6.1 0.00 0.02 0.02 46 1020.2
20260502103511 72 197 2.6 7.0 0.00 0.02 0.02 47 1020.1
20260502103027 71 156 2.6 7.0 0.00 0.02 0.02 47 1020.2
20260502102512 71 177 1.7 6.1 0.00 0.02 0.02 47 1020.3
20260502102007 71 205 2.6 6.1 0.00 0.02 0.02 48 1020.4
20260502101516 70 202 2.6 5.2 0.00 0.02 0.02 52 1020.4
20260502101006 68 51 0.9 1.7 0.00 0.02 0.02 64 1020.4
20260502100509 67 79 0.9 2.6 0.00 0.02 0.02 61 1020.5
20260502091528 61 113 1.7 2.6 0.00 0.02 0.02 71 1020.9
20260502091011 60 12 0.9 2.6 0.00 0.02 0.02 71 1021.0
20260502090507 59 67 1.7 2.6 0.00 0.02 0.02 71 1021.0
20260502071524 52 160 0.0 1.7 0.00 0.00 0.00 66 1021.9
20260502071009 52 188 0.0 1.7 0.00 0.00 0.00 66 1022.1
20260502070517 52 190 0.9 1.7 0.00 0.00 0.00 66 1022.3
20260502070018 51 209 0.9 1.7 0.00 0.00 0.00 68 1022.2
20260502065506 51 199 0.0 1.7 0.00 0.00 0.00 69 1022.0
20260502065006 50 200 0.0 1.7 0.00 0.00 0.00 70 1021.8
20260502064517 50 206 0.0 1.7 0.00 0.00 0.00 70 1021.8
20260502064007 51 175 0.0 1.7 0.00 0.00 0.00 71 1021.7
20260502063509 50 170 0.0 1.7 0.00 0.00 0.00 70 1021.7
20260502063004 49 191 0.0 1.7 0.00 0.00 0.00 71 1021.7
20260502062503 49 232 0.0 1.7 0.00 0.00 0.00 72 1021.8
20260502062002 49 107 0.0 1.7 0.00 0.00 0.00 73 1021.8
20260502061506 48 137 0.0 1.7 0.00 0.00 0.00 74 1021.8
20260502061006 47 61 0.0 1.7 0.00 0.00 0.00 74 1022.1
20260502060502 47 61 0.0 0.9 0.00 0.00 0.00 74 1022.2
20260502060008 47 61 0.0 1.7 0.00 0.00 0.00 75 1022.3
20260502055506 47 61 0.0 1.7 0.00 0.00 0.00 75 1022.4
20260502055006 47 61 0.9 1.7 0.00 0.00 0.00 76 1022.4
20260502054514 46 55 0.9 1.7 0.00 0.00 0.00 75 1022.5
20260502054008 46 74 0.0 1.7 0.00 0.00 0.00 76 1022.6
20260502053506 46 71 0.0 1.7 0.00 0.00 0.00 78 1022.6
20260502053020 46 232 0.0 1.7 0.00 0.00 0.00 78 1022.7
20260502052511 46 51 0.9 1.7 0.00 0.00 0.00 79 1022.7
20260502052011 45 78 0.0 2.6 0.00 0.00 0.00 81 1022.7
20260502051505 45 87 1.7 2.6 0.00 0.00 0.00 80 1022.7
20260502051003 44 84 0.9 1.7 0.00 0.00 0.00 82 1022.7
20260502050503 43 201 0.0 1.7 0.00 0.00 0.00 82 1022.6
20260502050010 43 198 0.0 0.0 0.00 0.00 0.00 82 1022.3
20260502045503 43 199 0.0 0.0 0.00 0.00 0.00 82 1022.3
20260502045006 42 198 0.0 1.7 0.00 0.00 0.00 83 1022.3
20260502044510 42 198 0.0 1.7 0.00 0.00 0.00 85 1022.2
20260502044007 41 199 0.0 1.7 0.00 0.00 0.00 85 1022.2
20260502043507 41 199 0.0 1.7 0.00 0.00 0.00 85 1022.1
20260502043016 41 211 0.0 1.7 0.00 0.00 0.00 85 1022.1
20260502042506 40 211 0.0 1.7 0.00 0.00 0.00 85 1022.1
20260502042010 40 219 0.0 1.7 0.00 0.00 0.00 84 1022.1
20260502041525 40 219 0.0 0.0 0.00 0.00 0.00 84 1022.0
20260502041011 40 219 0.0 1.7 0.00 0.00 0.00 85 1022.0
20260502040510 40 219 0.0 1.7 0.00 0.00 0.00 85 1021.9
20260502040004 40 196 0.0 1.7 0.00 0.00 0.00 84 1021.9
20260502035505 40 248 0.0 1.7 0.00 0.00 0.00 85 1021.9
20260502035007 40 175 0.0 1.7 0.00 0.00 0.00 85 1021.9
20260502034511 40 175 0.0 1.7 0.00 0.00 0.00 85 1022.1
20260502034007 40 109 0.0 1.7 0.00 0.00 0.00 84 1022.0
20260502033508 40 107 0.0 1.7 0.00 0.00 0.00 83 1022.1
20260502033014 41 46 0.0 1.7 0.00 0.00 0.00 83 1022.2
20260502032507 41 46 0.0 1.7 0.00 0.00 0.00 83 1022.2
20260502032009 41 51 0.9 1.7 0.00 0.00 0.00 83 1022.3
20260502031520 41 39 0.9 3.5 0.00 0.00 0.00 84 1022.4
20260502031007 40 339 0.9 3.5 0.00 0.00 0.00 84 1022.6
20260502030511 40 86 0.0 2.6 0.00 0.00 0.00 85 1022.7
20260502030025 40 254 0.0 2.6 0.00 0.00 0.00 84 1022.5
20260502025519 40 127 0.0 1.7 0.00 0.00 0.00 84 1022.5
20260502025010 40 277 0.0 2.6 0.00 0.00 0.00 85 1022.6
20260502024514 40 207 0.0 2.6 0.00 0.00 0.00 84 1022.2
20260502024007 40 167 0.0 1.7 0.00 0.00 0.00 84 1022.2
20260502023505 40 167 0.0 1.7 0.00 0.00 0.00 84 1022.2
20260502023016 40 159 0.0 1.7 0.00 0.00 0.00 85 1022.3
20260502022506 39 159 0.0 1.7 0.00 0.00 0.00 85 1022.3
20260502022005 40 159 0.0 1.7 0.00 0.00 0.00 84 1022.3
20260502021518 40 159 0.0 1.7 0.00 0.00 0.00 85 1022.3
20260502021009 40 125 0.0 1.7 0.00 0.00 0.00 84 1022.3
20260502020507 40 123 0.0 0.9 0.00 0.00 0.00 83 1022.4
20260502020024 40 122 0.0 1.7 0.00 0.00 0.00 84 1022.4
20260502015510 40 123 0.0 1.7 0.00 0.00 0.00 84 1022.4
20260502015012 40 123 0.0 1.7 0.00 0.00 0.00 84 1022.5
20260502014528 40 219 0.0 1.7 0.00 0.00 0.00 83 1022.5
20260502014014 40 219 0.0 1.7 0.00 0.00 0.00 83 1022.5
20260502013504 40 219 0.0 1.7 0.00 0.00 0.00 83 1022.6
20260502013015 40 215 0.0 1.7 0.00 0.00 0.00 84 1022.6
20260502012507 40 215 0.0 1.7 0.00 0.00 0.00 84 1022.6
20260502012010 40 214 0.9 1.7 0.00 0.00 0.00 83 1022.6
20260502011515 40 198 0.9 1.7 0.00 0.00 0.00 84 1022.5
20260502011006 40 154 0.0 0.0 0.00 0.00 0.00 83 1022.5
20260502010513 40 154 0.0 1.7 0.00 0.00 0.00 83 1022.6
20260502010026 40 154 0.0 1.7 0.00 0.00 0.00 82 1022.6
20260502005509 41 148 0.0 1.7 0.00 0.00 0.00 82 1022.7
20260502005013 40 148 0.0 1.7 0.00 0.00 0.00 83 1022.7
20260502004522 40 148 0.0 1.7 0.00 0.00 0.00 82 1022.8
20260502004024 41 148 0.0 1.7 0.00 0.00 0.00 82 1022.7
20260502003510 40 200 0.9 1.7 0.00 0.00 0.00 84 1022.8
20260502003028 40 223 0.0 1.7 0.00 0.00 0.00 83 1022.8
20260502002511 40 223 0.0 1.7 0.00 0.00 0.00 83 1022.8
20260502002005 40 223 0.0 0.0 0.00 0.00 0.00 83 1022.7
20260502001515 40 223 0.0 0.0 0.00 0.00 0.00 83 1022.7
20260502001007 40 223 0.0 0.0 0.00 0.00 0.00 82 1022.7
20260502000507 40 223 0.0 1.7 0.00 0.00 0.00 82 1022.7
20260502000019 40 223 0.0 1.7 0.00 0.00 0.00 82 1022.8
20260501235507 41 223 0.0 1.7 0.00 0.00 0.00 81 1022.8
20260501235014 41 223 0.0 1.7 0.00 0.00 0.00 80 1022.8
20260501234522 41 223 0.0 1.7 0.00 0.00 0.00 81 1022.8
20260501234010 40 223 0.0 1.7 0.00 0.00 0.00 81 1022.9
20260501233512 41 226 0.0 0.9 0.00 0.00 0.00 80 1022.9
20260501233026 41 264 0.0 0.0 0.00 0.00 0.00 80 1022.9
20260501232511 42 264 0.0 1.7 0.00 0.00 0.00 80 1023.0